Torna al catalogo

IRIDIUM 146

AttivoComunicazioniPO
NORAD 43254·PAYLOAD·🇺🇸 United States

Lanciato Mar 30, 2018 da Vandenberg Space Force Base

Loading…

Prossimi Passaggi (prossime 24 ore)

TLE

AggiornatoSource: CelesTrak SupGP

Epoca: Sep 15, 2026, 01:05 UTC

1 43254C 18030F   26258.04548611 -.00003387  00000+0 -12111-2 0  2580
2 43254  86.3913 252.8283 0002289  89.3244 323.0684 14.34221646    11

Traccia IRIDIUM 146 in tempo reale con AllMySat

Download on the App Store